Terug naar catalogus

FENGYUN 1C DEB

ActiefPO
NORAD 30316·DEBRIS·🇨🇳 China

Gelanceerd May 10, 1999 vanaf Taiyuan Satellite Launch Center

Loading…

Volgende Passages (komende 24 uur)

TLE

VersSource: Space-Track

Epoch: Sep 14, 2026, 06:46 UTC

1 30316U 99025AAD 26257.28219775  .00006033  00000-0  12273-2 0  9990
2 30316  98.6573  16.0518 0032651 269.6375  90.1082 14.61130443 23540

Volg FENGYUN 1C DEB in realtime met AllMySat

Download on the App Store